This demonstration page uses our WeatherBlox Daily Observations layout. Learn more.

Left ArrowRight Arrow

Hourly Observations for February 11, 2022

Temp ( °F °C ) Dew Point ( °F °C ) Humidity (%) Winds ( mph kmh ) Pressure ( in mb ) Visibility ( mi km ) Precip ( " mm )
12:15 am 00:15 Cloudy 52 11 29 -1.6 42 42 W 12 19 29.63 1004 10 16 0.00 0.00
12:35 am 00:35 Cloudy 51 10.5 29 -1.5 44 44 WNW 7 11 29.63 1003 10 16 0.00 0.00
12:55 am 00:55 Cloudy 50 10.2 29 -1.5 44 44 WNW 7 11 29.64 1004 10 16 0.00 0.00
1:15 am 01:15 Mostly Cloudy 50 10.2 29 -1.4 45 45 NW 8 13 29.65 1004 10 16 0.00 0.00
1:35 am 01:35 Mostly Cloudy 51 10.6 29 -1.4 44 44 N 17 28 29.67 1005 10 16 0.00 0.00
1:55 am 01:55 Mostly Cloudy 48 8.8 34 0.9 58 58 N 14 22 29.69 1006 10 16 0.00 0.00
2:15 am 02:15 Clear 47 8.3 35 1.6 63 63 N 14 22 29.71 1006 10 16 0.00 0.00
2:35 am 02:35 Clear 46 8 35 1.9 66 66 N 15 24 29.72 1006 10 16 0.00 0.00
2:55 am 02:55 Clear 46 7.6 35 1.6 66 66 N 17 28 29.74 1007 10 16 0.00 0.00
3:15 am 03:15 Clear 45 7.1 34 1.1 66 66 N 8 13 29.75 1007 10 16 0.00 0.00
3:35 am 03:35 Clear 44 6.7 34 1 67 67 NNW 7 11 29.76 1008 10 16 0.00 0.00
3:55 am 03:55 Clear 43 6.3 33 0.8 68 68 N 12 19 29.78 1008 10 16 0.00 0.00
4:15 am 04:15 Clear 43 6 33 0.8 70 70 N 10 17 29.79 1009 10 16 0.00 0.00
4:35 am 04:35 Partly Cloudy 42 5.7 33 0.7 71 71 N 8 13 29.80 1009 10 16 0.00 0.00
4:55 am 04:55 Mostly Cloudy 42 5.5 33 0.7 72 72 NNW 7 11 29.82 1010 10 16 0.00 0.00
5:15 am 05:15 Cloudy 42 5.7 34 1.1 73 73 NNW 14 22 29.83 1010 10 16 0.00 0.00
5:35 am 05:35 Cloudy 42 5.5 34 1.1 74 74 NNW 15 24 29.85 1011 10 16 0.00 0.00
5:55 am 05:55 Partly Cloudy 42 5.5 34 1 73 73 NNW 17 28 29.86 1011 10 16 0.00 0.00
6:15 am 06:15 Partly Cloudy 42 5.3 32 0.1 69 69 NNW 16 26 29.86 1011 10 16 0.00 0.00
6:35 am 06:35 Clear 40 4.7 32 0 72 72 NNW 13 20 29.88 1012 10 16 0.00 0.00
6:55 am 06:55 Clear 40 4.2 32 -0.2 73 73 NNW 12 19 29.91 1013 10 16 0.00 0.00
7:15 am 07:15 Clear 39 4.1 31 -0.5 72 72 NW 10 17 29.93 1013 10 16 0.00 0.00
7:35 am 07:35 Clear 40 4.2 31 -0.5 72 72 NW 13 20 29.95 1014 10 16 0.00 0.00
7:55 am 07:55 Sunny 39 4 31 -0.6 72 72 NW 10 17 29.96 1014 10 16 0.00 0.00
8:15 am 08:15 Sunny 39 4.1 31 -0.7 71 71 NW 13 20 29.98 1015 10 16 0.00 0.00
8:35 am 08:35 Sunny 41 4.8 30 -1.2 65 65 NW 15 24 29.98 1015 10 16 0.00 0.00
8:55 am 08:55 Sunny 41 5 29 -1.5 63 63 NW 15 24 29.99 1016 10 16 0.00 0.00
9:15 am 09:15 Sunny 41 5.2 29 -1.9 61 61 NNW 16 26 30.00 1016 10 16 0.00 0.00
9:35 am 09:35 Sunny 41 5.2 28 -2.1 60 60 NNW 14 22 30.00 1016 10 16 0.00 0.00
9:55 am 09:55 Sunny 45 7 28 -2.2 52 52 NNW 18 30 29.98 1015 10 16 0.00 0.00
10:15 am 10:15 Partly Cloudy 45 7.2 27 -2.7 50 50 NNW 25 41 29.99 1016 10 16 0.00 0.00
10:35 am 10:35 Partly Cloudy 45 7.4 27 -2.8 49 49 NNW 18 30 30.00 1016 10 16 0.00 0.00
10:55 am 10:55 Mostly Cloudy 46 7.7 25 -3.7 45 45 NNW 26 43 29.99 1016 10 16 0.00 0.00
11:15 am 11:15 Mostly Cloudy 46 8 23 -4.9 40 40 NNW 25 41 30.01 1016 10 16 0.00 0.00
11:35 am 11:35 Mostly Cloudy 47 8.6 22 -5.4 37 37 NNW 24 39 30.01 1016 10 16 0.00 0.00
11:55 am 11:55 Partly Cloudy 48 8.9 22 -5.8 35 35 NNW 24 39 30.01 1016 10 16 0.00 0.00
12:15 pm 12:15 Partly Cloudy 50 9.8 22 -5.7 33 33 NNW 25 41 30.00 1016 10 16 0.00 0.00
12:35 pm 12:35 Mostly Cloudy 48 8.9 23 -5.2 37 37 NNW 32 52 30.01 1016 10 16 0.00 0.00
12:55 pm 12:55 Mostly Cloudy 46 7.6 28 -2.3 50 50 N 29 46 30.04 1017 10 16 0.00 0.00
1:15 pm 13:15 Partly Cloudy 44 6.6 29 -1.4 57 57 N 25 41 30.05 1018 10 16 0.00 0.00
1:35 pm 13:35 Partly Cloudy 44 6.7 29 -1.6 56 56 N 21 33 30.05 1018 10 16 0.00 0.00
1:55 pm 13:55 Partly Cloudy 44 6.9 27 -2.6 51 51 N 20 31 30.05 1018 10 16 0.00 0.00
2:15 pm 14:15 Sunny 44 6.7 24 -4.2 46 46 N 25 41 30.07 1018 10 16 0.00 0.00
2:35 pm 14:35 Sunny 45 7 24 -4.4 44 44 N 28 44 30.08 1019 10 16 0.00 0.00
2:55 pm 14:55 Partly Cloudy 43 6.2 22 -5.6 43 43 NNW 29 46 30.09 1019 10 16 0.00 0.00
3:15 pm 15:15 Sunny 43 6.2 21 -6.1 41 41 NNW 28 44 30.11 1020 10 16 0.00 0.00
3:35 pm 15:35 Sunny 43 6 19 -7 39 39 NNW 25 41 30.12 1020 10 16 0.00 0.00
3:55 pm 15:55 Sunny 42 5.5 19 -7.5 39 39 NNW 29 46 30.13 1020 10 16 0.00 0.00
4:15 pm 16:15 Partly Cloudy 40 4.4 19 -7.3 43 43 N 28 44 30.16 1021 10 16 0.00 0.00
4:35 pm 16:35 Sunny 39 4 18 -7.9 42 42 N 35 56 30.17 1022 10 16 0.00 0.00
4:55 pm 16:55 Sunny 37 3 17 -8.5 43 43 N 22 35 30.20 1023 10 16 0.00 0.00
5:15 pm 17:15 Sunny 35 1.7 15 -9.6 43 43 N 31 50 30.23 1024 10 16 0.00 0.00
5:35 pm 17:35 Sunny 34 1 15 -9.7 45 45 NNW 24 39 30.26 1025 10 16 0.00 0.00
5:55 pm 17:55 Sunny 33 0.3 15 -9.6 48 48 N 22 35 30.28 1025 10 16 0.00 0.00
6:15 pm 18:15 Clear 31 -0.5 13 -10.5 47 47 N 24 39 30.31 1026 10 16 0.00 0.00
6:35 pm 18:35 Clear 29 -1.6 13 -10.5 51 51 N 21 33 30.34 1027 10 16 0.00 0.00
6:55 pm 18:55 Clear 28 -2.3 12 -11.1 51 51 N 18 30 30.37 1028 10 16 0.00 0.00
7:15 pm 19:15 Clear 27 -3 12 -11 54 54 N 13 20 30.39 1029 10 16 0.00 0.00
7:35 pm 19:35 Clear 26 -3.6 12 -11 57 57 N 14 22 30.42 1030 10 16 0.00 0.00
7:55 pm 19:55 Clear 24 -4.5 12 -11 61 61 N 16 26 30.44 1031 10 16 0.00 0.00
8:15 pm 20:15 Clear 23 -5 12 -11.3 62 62 N 17 28 30.46 1031 10 16 0.00 0.00
8:35 pm 20:35 Clear 22 -5.3 11 -11.5 62 62 N 14 22 30.48 1032 10 16 0.00 0.00
8:55 pm 20:55 Clear 20 -6.5 10 -12 65 65 N 13 20 30.50 1033 10 16 0.00 0.00
9:15 pm 21:15 Clear 20 -6.5 10 -12 65 65 N 12 19 30.51 1033 10 16 0.00 0.00
9:35 pm 21:35 Clear 19 -7.1 10 -12.4 66 66 N 13 20 30.54 1034 10 16 0.00 0.00
9:55 pm 21:55 Mostly Cloudy 20 -6.7 9 -12.7 63 63 N 12 19 30.54 1034 10 16 0.00 0.00
10:15 pm 22:15 Mostly Cloudy 20 -6.9 8 -13.1 62 62 N 9 15 30.55 1035 10 16 0.00 0.00
10:35 pm 22:35 Partly Cloudy 19 -7.4 8 -13.4 63 63 N 10 17 30.56 1035 10 16 0.00 0.00
10:55 pm 22:55 Partly Cloudy 18 -7.6 8 -13.4 64 64 N 9 15 30.57 1035 10 16 0.00 0.00
11:15 pm 23:15 Clear 18 -8 8 -13.6 64 64 NNW 7 11 30.59 1036 10 16 0.00 0.00
11:35 pm 23:35 Mostly Cloudy 17 -8.5 8 -13.6 67 67 N 7 11 30.60 1036 10 16 0.00 0.00
11:55 pm 23:55 Partly Cloudy 17 -8.3 7 -13.7 65 65 NNW 8 13 30.61 1037 10 16 0.00 0.00

Powered by AerisWeather